RH
68 73 80 84 81 89 80 87 91 93 91 96 96 96 89 94 93 93 87 86 80 77 72 72 73 74 70 73 74 71 71 71 66 72 74 80 69 65 62 69 68 63 93
71 71 74 80 86 88 88 94 91 94 97 98 96 97 96 92 92 84 81 81 77 79 81 80 80 66 81 82 78 82 83 76 71 72 80 80 76 75 72 72 60 54 70
68 74 76 78 84 88 86 92 96 97 96 92 89 91 98 94 89 76 82 76 69 71 70 75 78 74 79 84 84 91 93 85 83 77 85 87 78 82 73 75 70 73 59
66 70 75 79 81 82 90 91 97 97 94 91 88 88 93 92 94 85 81 86 74 71 69 72 77 77 85 80 84 91 86 86 86 84 89 87 84 79 86 86 74 81 76
66 69 72 76 80 83 96 92 98 96 94 90 94 93 92 94 92 93 85 76 66 73 71 76 76 76 69 77 77 84 83 90 93 89 91 92 91 82 85 91 84 89 84
62 65 70 81 86 88 94 95 97 98 96 92 94 96 97 96 91 90 76 76 64 64 68 74 80 78 70 69 71 71 72 81 87 89 94 87 86 88 90 88 89 90 86
64 65 83 81 86 94 91 94 98 97 98 96 94 97 96 95 94 87 82 74 59 63 73 77 68 58 65 61 67 72 72 72 70 80 79 81 84 84 87 88 90 93 91
78 80 82 87 91 96 96 98 98 97 95 97 96 98 99 99 94 89 83 67 69 72 74 74 73 66 66 72 80 84 84 84 84 81 88 81 86 86 90 83 81 82 89
85 91 93 96 97 97 98 99 99 98 95 98 99 99 99 99 95 89 81 80 78 78 82 75 78 78 81 74 76 77 85 85 76 88 82 81 82 86 89 95 95 96 91
95 97 97 96 95 96 98 99 98 96 96 99 99 99 97 98 97 94 90 85 89 86 78 79 75 67 77 77 69 89 88 81 85 76 68 68 71 76 78 92 87 89 95
98 98 98 98 98 97 96 94 95 97 98 99 99 99 98 97 98 90 88 85 77 76 69 69 78 81 80 77 80 91 81 72 71 76 76 75 78 88 82 88 93 92 95
98 99 99 98 98 98 96 96 97 98 99 99 99 99 99 99 94 88 87 82 78 70 73 74 67 86 80 79 80 74 78 82 76 72 77 75 85 86 89 94 91 94 95
98 99 99 98 99 98 98 99 99 99 99 99 99 99 100 99 92 86 86 81 80 74 76 76 81 80 80 78 78 80 80 79 73 75 75 80 88 83 88 90 90 85 87
98 98 98 99 99 99 99 99 99 99 94 92 94 99 99 98 90 83 74 78 82 71 78 82 86 79 75 74 75 78 81 79 74 76 82 88 93 94 92 92 83 80 80
96 98 97 98 98 100 100 100 99 97 94 94 96 91 89 88 81 74 68 65 65 69 85 90 80 78 75 77 82 83 89 96 96 96 95 91 92 90 88 95 84 82 82
97 98 98 99 99 99 99 98 94 94 95 91 85 81 79 72 81 82 78 76 78 85 79 89 94 95 90 88 86 85 78 82 90 90 95 95 94 92 93 93 87 71 74
97 97 98 99 99 99 99 98 99 90 94 95 88 85 74 66 82 81 81 80 81 84 78 88 85 82 80 78 84 68 70 82 88 92 93 94 93 94 93 93 86 74 76
95 100 98 99 99 99 98 98 98 87 89 93 95 92 82 80 86 83 82 78 69 72 84 85 83 76 80 75 68 68 76 93 92 94 94 93 95 94 94 87 76 70 71
98 98 98 99 99 99 95 91 95 94 80 92 96 94 97 95 90 87 84 72 71 70 70 69 74 74 75 71 71 74 80 91 95 96 95 94 93 88 85 80 77 76 76
98 95 98 98 98 98 99 98 98 98 92 95 97 96 98 87 78 78 79 78 78 74 69 72 78 74 70 74 84 92 96 96 96 96 94 94 95 95 89 81 76 75 79
98 98 97 98 98 98 93 98 91 97 96 96 94 96 92 92 75 68 71 77 73 69 76 72 69 77 80 84 96 96 95 95 95 95 95 95 95 94 89 81 78 78 93
97 96 96 97 98 98 97 96 98 97 96 96 93 94 98 92 79 72 66 66 64 67 72 68 74 79 82 95 96 96 95 96 96 95 95 95 95 95 91 82 86 86 92
97 96 96 96 98 99 99 99 99 98 96 95 94 81 82 93 66 61 61 58 66 78 71 81 88 93 96 96 95 95 96 96 95 95 95 95 95 95 96 94 93 94 94
94 93 95 95 96 97 98 98 99 99 95 94 94 92 73 65 55 54 60 67 73 72 80 92 85 92 95 96 97 96 96 95 95 95 93 94 94 95 94 94 94 94 95
96 95 94 92 96 98 99 98 99 97 94 93 94 77 59 54 58 66 73 65 69 82 89 84 92 92 92 91 91 92 99 99 97 99 95 92 91 90 93 95 94 95 92
96 96 95 96 98 98 99 98 99 94 92 93 92 69 54 60 67 67 60 68 80 85 83 94 93 87 80 79 81 96 99 100 96 99 99 94 92 90 93 93 91 94 86
Wind_Speed
14 12 11 10 10 7 8 7 7 6 8 7 7 6 6 6 5 7 5 5 6 5 5 5 5 3 3 4 3 3 4 3 5 1 1 3 4 3 4 4 4 4 3
15 13 14 11 10 10 9 7 8 7 8 13 14 14 7 4 7 11 9 6 7 4 5 6 5 4 4 4 3 5 4 4 4 2 3 2 1 2 2 2 4 4 5
14 13 12 12 11 11 10 8 7 12 16 15 18 23 7 14 10 10 12 11 8 7 7 6 6 6 4 3 3 4 3 2 3 3 1 1 1 1 3 2 2 4 3
14 14 13 13 13 12 10 8 11 14 16 16 12 12 19 13 7 9 10 9 7 7 6 6 6 6 6 4 4 5 3 4 3 4 2 1 1 2 2 2 4 2 3
14 14 16 13 12 11 9 10 13 16 16 12 13 10 5 7 7 9 10 10 8 5 5 5 5 7 9 7 4 3 3 2 2 3 2 1 1 1 0 2 2 3 3
14 16 12 11 11 10 11 13 14 11 17 18 10 8 4 7 10 16 14 9 9 9 7 6 6 8 7 7 7 7 5 4 3 3 2 2 3 2 1 1 1 3 4
13 12 11 12 11 10 13 12 13 12 11 8 5 4 13 13 15 18 17 8 10 8 7 6 6 4 6 5 4 1 2 2 4 5 3 5 3 5 2 1 2 2 4
9 10 10 10 9 9 10 11 13 12 12 7 6 6 6 7 16 17 15 9 6 7 7 6 6 6 6 6 4 2 3 5 5 4 6 6 5 3 4 4 5 4 3
10 8 7 9 9 10 10 13 12 13 11 6 4 6 7 6 15 16 13 6 6 7 6 7 7 7 8 9 6 4 4 4 3 7 11 8 10 12 11 2 4 3 4
6 6 6 8 10 10 11 11 9 11 9 7 7 6 7 8 12 14 8 5 6 4 3 5 12 9 10 10 7 5 4 5 3 2 4 4 7 7 7 7 3 4 3
6 6 6 5 7 10 10 8 8 9 9 8 8 4 5 8 8 12 11 6 7 5 5 4 3 8 10 9 8 7 7 4 3 2 3 3 3 4 4 3 2 3 2
6 7 7 7 6 6 10 7 6 6 5 5 7 6 4 5 10 10 13 9 9 7 5 4 5 10 9 9 6 8 9 5 2 3 2 3 3 3 2 4 3 3 3
8 8 8 8 7 6 8 6 5 6 5 6 5 5 5 4 5 10 12 12 11 5 4 6 8 11 11 7 9 7 5 4 3 3 4 3 3 4 1 2 1 3 2
8 7 7 6 7 5 4 3 4 6 6 6 6 6 5 4 5 4 5 6 9 6 5 3 2 3 2 3 3 3 5 5 5 5 4 3 2 3 2 3 2 0 0
7 6 6 5 5 5 4 2 2 3 7 6 5 7 9 7 7 9 9 6 5 6 6 3 2 1 2 4 4 5 5 4 4 3 4 3 3 3 2 3 2 2 3
6 4 4 4 5 5 5 3 6 3 8 11 12 9 3 6 13 13 12 12 11 13 4 3 3 4 5 3 4 4 2 2 2 2 3 3 3 3 2 2 3 4 4
5 4 4 4 4 5 4 6 6 4 9 4 11 12 12 10 15 15 13 10 9 8 3 3 4 3 2 4 3 3 3 3 2 3 3 4 4 3 3 2 3 3 3
3 7 4 4 5 4 4 4 4 5 5 3 7 2 8 13 12 13 12 10 3 1 3 4 4 3 4 4 4 3 2 2 1 2 3 2 2 3 2 3 3 2 2
6 4 4 5 5 5 4 4 3 4 4 4 2 4 7 7 5 8 12 4 4 4 3 2 3 4 4 4 3 2 3 3 3 3 2 1 2 2 3 4 2 3 2
7 9 6 5 5 5 4 4 4 4 4 4 3 3 4 3 3 4 4 3 3 2 3 5 5 4 5 4 3 3 4 3 3 3 2 1 2 2 3 3 3 3 3
3 4 5 4 4 5 6 7 6 6 5 4 4 5 10 7 7 7 7 5 4 4 3 4 4 4 4 4 4 4 4 3 3 3 1 1 2 2 3 1 2 3 3
3 3 2 3 4 4 4 5 7 7 7 6 3 4 9 2 5 6 6 5 5 5 4 5 4 4 4 5 5 4 4 4 3 2 1 1 1 3 3 2 2 2 3
5 5 3 2 4 4 4 5 7 8 8 7 6 6 7 5 6 6 5 5 5 4 5 5 6 4 4 3 3 4 5 4 3 3 2 0 1 2 2 2 3 3 3
4 4 4 3 2 0 2 2 6 10 10 9 7 6 8 8 7 6 5 5 5 6 6 5 5 6 5 4 4 3 3 1 1 2 2 1 2 4 3 3 3 5 5
3 3 3 2 2 2 3 3 4 8 9 10 8 6 7 6 5 4 5 7 8 8 6 6 4 7 7 7 6 5 4 4 4 1 1 2 3 5 4 4 4 5 5
1 3 3 3 3 4 4 4 4 7 8 9 8 8 7 6 5 7 8 10 8 7 8 5 6 8 9 6 6 6 4 4 3 4 2 1 2 4 4 5 8 6 6
Wind_Direction
197 195 193 203 199 185 197 182 182 175 168 143 136 118 145 132 139 107 94 109 88 104 111 100 71 31 65 65 39 47 67 80 111 338 45 27 20 12 350 6 22 354 303
198 193 199 196 193 189 193 184 173 140 89 80 73 38 351 160 158 150 148 152 136 157 140 119 130 126 86 68 59 46 54 48 102 107 8 26 73 329 314 31 351 15 349
194 194 197 199 193 198 194 179 138 124 125 115 103 92 249 236 177 162 151 164 149 174 170 149 148 124 109 101 98 87 52 76 97 124 106 47 56 324 10 342 348 344 329
192 194 198 198 197 195 185 160 138 138 137 138 137 155 185 199 189 178 156 149 160 177 163 159 154 132 133 134 114 108 85 68 70 86 72 34 27 317 30 30 347 351 335
191 194 204 199 195 183 150 152 145 160 154 152 161 190 254 188 184 163 155 161 162 169 154 163 148 153 148 158 140 132 106 66 69 74 78 49 310 335 333 324 311 313 305
194 203 198 190 183 168 147 163 169 155 160 188 154 148 210 222 176 157 159 157 160 165 174 174 167 155 156 151 122 130 153 157 140 140 169 194 255 219 246 252 315 12 328
196 199 188 185 180 160 164 164 154 152 157 152 180 181 198 197 166 161 162 160 162 171 160 161 165 167 162 141 119 85 321 236 162 157 178 219 230 222 183 258 246 211 239
185 187 180 173 167 156 146 146 149 158 161 151 189 204 165 164 158 154 154 158 152 152 158 173 169 169 177 155 145 221 272 285 274 231 216 241 237 276 221 210 215 226 271
176 171 165 155 148 149 148 148 153 153 159 169 174 165 161 168 160 154 148 152 141 168 170 178 167 161 169 151 152 187 270 284 276 253 237 267 274 262 243 215 255 203 273
144 148 143 154 156 148 141 147 150 145 147 152 170 191 160 157 157 151 138 144 152 150 147 168 156 160 177 168 163 172 223 241 238 319 336 321 296 292 302 201 193 219 202
95 100 98 98 114 127 120 128 124 132 149 155 162 182 150 158 153 154 149 155 161 164 163 168 173 179 183 186 172 182 208 192 268 309 292 290 321 321 355 354 212 163 178
65 79 83 86 98 110 124 139 131 126 136 142 144 148 139 148 152 164 166 159 155 156 175 183 185 188 192 207 200 223 232 230 268 279 293 306 298 264 299 277 241 184 213
80 76 95 97 91 107 124 143 132 146 150 149 148 153 150 146 155 154 148 144 138 141 172 195 184 193 206 230 232 232 245 234 238 248 250 247 223 210 148 264 26 71 66
102 103 98 103 105 115 108 136 166 155 151 157 159 156 146 150 161 159 142 129 127 117 133 134 173 158 153 263 315 254 228 222 213 223 221 235 183 138 193 203 190 240 37
123 129 139 142 144 121 80 86 151 170 161 159 168 163 163 176 190 171 161 157 157 148 104 63 58 40 280 273 273 266 259 218 211 196 203 191 178 161 226 197 192 205 201
145 152 167 150 160 157 150 121 50 71 185 167 157 165 187 146 152 165 169 162 156 136 94 161 193 206 231 262 271 286 299 157 171 156 150 163 174 196 232 231 224 206 216
175 184 158 163 158 171 178 168 158 39 66 92 177 167 165 172 167 170 174 167 146 127 162 179 209 213 254 256 235 196 197 215 156 148 160 178 180 212 220 242 245 224 227
204 211 201 195 175 173 186 184 150 163 162 155 58 151 186 166 172 175 154 108 111 105 149 200 212 202 248 190 186 200 199 175 164 175 147 165 201 207 233 259 244 197 213
203 218 191 160 169 176 179 168 173 169 154 139 120 70 70 71 107 145 153 144 166 187 171 221 201 211 203 177 202 218 196 188 158 144 141 166 255 246 260 262 186 181 255
221 209 179 168 170 165 169 168 163 156 151 158 179 168 125 94 154 154 186 160 174 153 186 224 224 187 161 149 155 156 133 119 131 140 165 314 306 278 265 258 184 208 236
192 182 181 167 165 195 184 176 183 172 172 160 169 161 169 166 183 178 190 188 164 180 207 162 146 126 123 135 138 135 135 150 152 145 148 262 291 318 316 216 233 245 268
145 154 163 179 194 197 197 190 167 167 162 166 164 152 173 169 176 181 189 162 172 187 153 143 134 140 146 147 148 151 154 147 146 142 118 321 350 342 327 287 276 279 300
150 146 138 203 221 207 210 171 162 161 168 171 167 151 181 205 196 194 162 161 170 156 136 123 128 120 117 122 136 143 144 158 164 147 138 337 330 328 316 340 334 317 303
157 170 160 175 213 221 303 232 176 168 164 171 170 176 191 197 205 184 153 158 119 110 124 124 124 134 127 118 101 91 103 100 107 132 128 222 273 302 321 317 306 304 290
198 188 182 165 225 227 229 247 172 173 169 165 180 187 193 182 153 161 144 131 129 127 122 125 121 123 128 126 121 113 101 76 77 10 347 308 301 311 298 287 288 289 288
173 203 219 180 205 223 214 208 165 152 160 169 186 197 165 154 150 127 129 127 123 122 130 118 132 134 126 117 110 117 119 89 66 39 8 352 302 286 280 278 284 274 272